Time,TemperatureF,DewpointF,PressureIn,WindDirection,WindDirectionDegrees,WindSpeedMPH,WindSpeedGustMPH,Humidity,HourlyPrecipIn,Conditions,Clouds,dailyrainin,SoftwareType,DateUTC
2013-07-31 00:03:00,62.2,41.1,30.10,NW,315,0.0,0.0,46,0.00,,,0.00,WUHU21623XXSP,2013-07-31 07:03:00,
2013-07-31 00:08:00,61.9,40.7,30.10,NW,315,0.0,0.0,46,0.00,,,0.00,WUHU21623XXSP,2013-07-31 07:08:00,
2013-07-31 00:14:00,61.5,40.4,30.10,NW,315,0.0,0.0,46,0.00,,,0.00,WUHU21623XXSP,2013-07-31 07:14:00,
2013-07-31 00:19:00,61.3,40.3,30.10,NW,315,0.0,0.0,46,0.00,,,0.00,WUHU21623XXSP,2013-07-31 07:19:00,
2013-07-31 00:24:00,61.0,39.9,30.10,NW,315,0.0,0.0,46,0.00,,,0.00,WUHU21623XXSP,2013-07-31 07:24:00,
2013-07-31 00:30:00,60.6,40.2,30.10,West,270,1.6,1.6,47,0.00,,,0.00,WUHU21623XXSP,2013-07-31 07:30:00,
2013-07-31 00:35:00,60.4,40.0,30.10,West,270,0.0,1.6,47,0.00,,,0.00,WUHU21623XXSP,2013-07-31 07:35:00,
2013-07-31 00:40:00,60.4,40.0,30.10,West,270,0.0,1.6,47,0.00,,,0.00,WUHU21623XXSP,2013-07-31 07:40:00,
2013-07-31 00:45:00,60.3,39.9,30.10,West,270,0.0,1.6,47,0.00,,,0.00,WUHU21623XXSP,2013-07-31 07:45:00,
2013-07-31 00:51:00,60.3,39.9,30.10,West,270,0.0,0.0,47,0.00,,,0.00,WUHU21623XXSP,2013-07-31 07:51:00,
2013-07-31 00:56:00,60.1,39.7,30.10,West,270,0.0,0.0,47,0.00,,,0.00,WUHU21623XXSP,2013-07-31 07:56:00,
2013-07-31 01:01:00,60.1,39.7,30.10,West,270,0.0,0.0,47,0.00,,,0.00,WUHU21623XXSP,2013-07-31 08:01:00,
2013-07-31 01:07:00,59.9,39.5,30.10,West,270,0.0,0.0,47,0.00,,,0.00,WUHU21623XXSP,2013-07-31 08:07:00,
2013-07-31 01:12:00,59.7,39.4,30.09,West,270,0.0,0.0,47,0.00,,,0.00,WUHU21623XXSP,2013-07-31 08:12:00,
2013-07-31 01:17:00,59.5,39.8,30.09,West,270,0.0,0.0,48,0.00,,,0.00,WUHU21623XXSP,2013-07-31 08:17:00,
2013-07-31 01:22:00,59.5,39.8,30.10,West,270,0.0,0.0,48,0.00,,,0.00,WUHU21623XXSP,2013-07-31 08:22:00,
2013-07-31 01:27:00,59.5,39.8,30.09,West,270,0.0,0.0,48,0.00,,,0.00,WUHU21623XXSP,2013-07-31 08:27:00,
2013-07-31 01:33:00,59.5,39.8,30.09,West,270,0.0,0.0,48,0.00,,,0.00,WUHU21623XXSP,2013-07-31 08:33:00,
2013-07-31 01:38:00,59.4,39.6,30.09,West,270,0.0,0.0,48,0.00,,,0.00,WUHU21623XXSP,2013-07-31 08:38:00,
2013-07-31 01:43:00,59.5,40.4,30.08,West,270,0.0,0.0,49,0.00,,,0.00,WUHU21623XXSP,2013-07-31 08:43:00,
2013-07-31 01:48:00,59.4,39.6,30.09,West,270,0.0,0.0,48,0.00,,,0.00,WUHU21623XXSP,2013-07-31 08:48:00,
2013-07-31 01:54:00,59.2,39.5,30.09,West,270,0.0,0.0,48,0.00,,,0.00,WUHU21623XXSP,2013-07-31 08:54:00,
2013-07-31 02:00:00,58.8,39.1,30.09,West,270,0.0,0.0,48,0.00,,,0.00,WUHU21623XXSP,2013-07-31 09:00:00,
2013-07-31 02:05:00,58.8,39.1,30.09,West,270,0.0,0.0,48,0.00,,,0.00,WUHU21623XXSP,2013-07-31 09:05:00,
2013-07-31 02:10:00,58.3,39.2,30.09,West,270,0.0,0.0,49,0.00,,,0.00,WUHU21623XXSP,2013-07-31 09:10:00,
2013-07-31 02:15:00,58.1,39.1,30.09,West,270,0.0,0.0,49,0.00,,,0.00,WUHU21623XXSP,2013-07-31 09:15:00,
2013-07-31 02:21:00,57.9,38.9,30.09,West,270,0.0,0.0,49,0.00,,,0.00,WUHU21623XXSP,2013-07-31 09:21:00,
2013-07-31 02:26:00,57.9,38.9,30.09,West,270,0.0,0.0,49,0.00,,,0.00,WUHU21623XXSP,2013-07-31 09:26:00,
2013-07-31 02:31:00,57.7,39.3,30.09,West,270,0.0,0.0,50,0.00,,,0.00,WUHU21623XXSP,2013-07-31 09:31:00,
2013-07-31 02:36:00,57.7,39.3,30.10,West,270,0.0,0.0,50,0.00,,,0.00,WUHU21623XXSP,2013-07-31 09:36:00,
2013-07-31 02:42:00,57.7,39.3,30.09,West,270,0.0,0.0,50,0.00,,,0.00,WUHU21623XXSP,2013-07-31 09:42:00,
2013-07-31 02:48:00,57.7,39.3,30.09,West,270,0.0,0.0,50,0.00,,,0.00,WUHU21623XXSP,2013-07-31 09:48:00,
2013-07-31 02:53:00,57.6,39.2,30.09,West,270,0.0,0.0,50,0.00,,,0.00,WUHU21623XXSP,2013-07-31 09:53:00,
2013-07-31 02:58:00,57.4,39.0,30.09,West,270,0.0,0.0,50,0.00,,,0.00,WUHU21623XXSP,2013-07-31 09:58:00,
2013-07-31 03:03:00,57.4,39.0,30.10,West,270,0.0,0.0,50,0.00,,,0.00,WUHU21623XXSP,2013-07-31 10:03:00,
2013-07-31 03:09:00,57.0,39.1,30.10,West,270,0.0,0.0,51,0.00,,,0.00,WUHU21623XXSP,2013-07-31 10:09:00,
2013-07-31 03:14:00,57.0,39.1,30.09,West,270,0.0,0.0,51,0.00,,,0.00,WUHU21623XXSP,2013-07-31 10:14:00,
2013-07-31 03:19:00,56.8,38.9,30.09,West,270,0.9,0.9,51,0.00,,,0.00,WUHU21623XXSP,2013-07-31 10:19:00,
2013-07-31 03:24:00,56.8,38.9,30.09,West,270,0.0,0.9,51,0.00,,,0.00,WUHU21623XXSP,2013-07-31 10:24:00,
2013-07-31 03:30:00,56.8,39.4,30.09,West,270,0.0,0.0,52,0.00,,,0.00,WUHU21623XXSP,2013-07-31 10:30:00,
2013-07-31 03:35:00,56.7,39.2,30.09,West,270,0.0,0.0,52,0.00,,,0.00,WUHU21623XXSP,2013-07-31 10:35:00,
2013-07-31 03:40:00,56.5,39.1,30.09,West,270,0.0,0.0,52,0.00,,,0.00,WUHU21623XXSP,2013-07-31 10:40:00,
2013-07-31 03:45:00,56.5,39.1,30.09,West,270,0.0,0.0,52,0.00,,,0.00,WUHU21623XXSP,2013-07-31 10:45:00,
2013-07-31 03:51:00,56.1,38.7,30.09,West,270,0.0,0.0,52,0.00,,,0.00,WUHU21623XXSP,2013-07-31 10:51:00,
2013-07-31 03:56:00,55.9,38.5,30.09,West,270,0.0,0.0,52,0.00,,,0.00,WUHU21623XXSP,2013-07-31 10:56:00,
2013-07-31 04:02:00,55.9,39.0,30.09,West,270,0.0,0.0,53,0.00,,,0.00,WUHU21623XXSP,2013-07-31 11:02:00,
2013-07-31 04:07:00,55.9,39.0,30.09,West,270,0.0,0.0,53,0.00,,,0.00,WUHU21623XXSP,2013-07-31 11:07:00,
2013-07-31 04:12:00,55.9,39.0,30.09,West,270,0.0,0.0,53,0.00,,,0.00,WUHU21623XXSP,2013-07-31 11:12:00,
2013-07-31 04:17:00,56.1,39.2,30.09,West,270,0.0,0.0,53,0.00,,,0.00,WUHU21623XXSP,2013-07-31 11:17:00,
2013-07-31 04:23:00,56.1,39.2,30.09,West,270,0.0,0.0,53,0.00,,,0.00,WUHU21623XXSP,2013-07-31 11:23:00,
2013-07-31 04:28:00,55.9,39.0,30.09,West,270,0.0,0.0,53,0.00,,,0.00,WUHU21623XXSP,2013-07-31 11:28:00,
2013-07-31 04:33:00,55.8,38.8,30.09,West,270,0.0,0.0,53,0.00,,,0.00,WUHU21623XXSP,2013-07-31 11:33:00,
2013-07-31 04:38:00,55.6,39.1,30.09,West,270,0.0,0.0,54,0.00,,,0.00,WUHU21623XXSP,2013-07-31 11:38:00,
2013-07-31 04:44:00,55.6,39.1,30.08,West,270,0.0,0.0,54,0.00,,,0.00,WUHU21623XXSP,2013-07-31 11:44:00,
2013-07-31 04:49:00,55.6,39.1,30.08,West,270,0.0,0.0,54,0.00,,,0.00,WUHU21623XXSP,2013-07-31 11:49:00,
2013-07-31 04:55:00,55.6,39.1,30.09,West,270,0.0,0.0,54,0.00,,,0.00,WUHU21623XXSP,2013-07-31 11:55:00,
2013-07-31 05:00:00,55.6,39.1,30.09,West,270,0.0,0.0,54,0.00,,,0.00,WUHU21623XXSP,2013-07-31 12:00:00,
2013-07-31 05:05:00,55.6,39.1,30.09,West,270,0.0,0.0,54,0.00,,,0.00,WUHU21623XXSP,2013-07-31 12:05:00,
2013-07-31 05:11:00,55.6,39.1,30.09,West,270,0.0,0.0,54,0.00,,,0.00,WUHU21623XXSP,2013-07-31 12:11:00,
2013-07-31 05:16:00,55.6,39.1,30.09,West,270,0.0,0.0,54,0.00,,,0.00,WUHU21623XXSP,2013-07-31 12:16:00,
2013-07-31 05:21:00,55.8,39.3,30.09,West,270,0.0,0.0,54,0.00,,,0.00,WUHU21623XXSP,2013-07-31 12:21:00,
2013-07-31 05:26:00,55.9,39.5,30.09,West,270,0.0,0.0,54,0.00,,,0.00,WUHU21623XXSP,2013-07-31 12:26:00,
2013-07-31 05:32:00,55.9,39.5,30.09,West,270,0.0,0.0,54,0.00,,,0.00,WUHU21623XXSP,2013-07-31 12:32:00,
2013-07-31 05:37:00,56.1,39.6,30.09,West,270,0.0,0.0,54,0.00,,,0.00,WUHU21623XXSP,2013-07-31 12:37:00,
2013-07-31 05:42:00,56.1,39.6,30.09,West,270,0.0,0.0,54,0.00,,,0.00,WUHU21623XXSP,2013-07-31 12:42:00,
2013-07-31 05:47:00,55.9,39.5,30.09,West,270,0.0,0.0,54,0.00,,,0.00,WUHU21623XXSP,2013-07-31 12:47:00,
2013-07-31 05:53:00,55.9,39.5,30.09,West,270,0.0,0.0,54,0.00,,,0.00,WUHU21623XXSP,2013-07-31 12:53:00,
2013-07-31 05:58:00,55.9,39.0,30.09,West,270,0.0,0.0,53,0.00,,,0.00,WUHU21623XXSP,2013-07-31 12:58:00,
2013-07-31 06:04:00,55.8,39.3,30.09,West,270,0.0,0.0,54,0.00,,,0.00,WUHU21623XXSP,2013-07-31 13:04:00,
2013-07-31 06:09:00,55.9,39.5,30.09,West,270,0.0,0.0,54,0.00,,,0.00,WUHU21623XXSP,2013-07-31 13:09:00,
2013-07-31 06:14:00,55.8,39.3,30.09,West,270,0.0,0.0,54,0.00,,,0.00,WUHU21623XXSP,2013-07-31 13:14:00,
2013-07-31 06:19:00,55.8,39.3,30.09,West,270,0.0,0.0,54,0.00,,,0.00,WUHU21623XXSP,2013-07-31 13:19:00,
2013-07-31 06:25:00,55.9,39.5,30.09,West,270,0.0,0.0,54,0.00,,,0.00,WUHU21623XXSP,2013-07-31 13:25:00,
2013-07-31 06:30:00,55.9,39.0,30.09,West,270,0.0,0.0,53,0.00,,,0.00,WUHU21623XXSP,2013-07-31 13:30:00,
2013-07-31 06:35:00,55.9,39.5,30.09,West,270,0.0,0.0,54,0.00,,,0.00,WUHU21623XXSP,2013-07-31 13:35:00,
2013-07-31 06:40:00,55.8,39.3,30.10,West,270,0.0,0.0,54,0.00,,,0.00,WUHU21623XXSP,2013-07-31 13:40:00,
2013-07-31 06:46:00,55.8,39.3,30.09,West,270,0.0,0.0,54,0.00,,,0.00,WUHU21623XXSP,2013-07-31 13:46:00,
2013-07-31 06:51:00,55.9,39.5,30.09,West,270,0.0,0.0,54,0.00,,,0.00,WUHU21623XXSP,2013-07-31 13:51:00,
2013-07-31 06:56:00,56.1,39.6,30.09,West,270,0.0,0.0,54,0.00,,,0.00,WUHU21623XXSP,2013-07-31 13:56:00,
2013-07-31 07:01:00,56.3,39.3,30.09,West,270,0.0,0.0,53,0.00,,,0.00,WUHU21623XXSP,2013-07-31 14:01:00,
2013-07-31 07:07:00,56.8,40.4,30.09,West,270,0.0,0.0,54,0.00,,,0.00,WUHU21623XXSP,2013-07-31 14:07:00,
2013-07-31 07:12:00,57.2,40.2,30.09,West,270,0.0,0.0,53,0.00,,,0.00,WUHU21623XXSP,2013-07-31 14:12:00,
2013-07-31 07:17:00,57.7,40.7,30.09,West,270,0.0,0.0,53,0.00,,,0.00,WUHU21623XXSP,2013-07-31 14:17:00,
2013-07-31 07:22:00,58.1,41.1,30.09,West,270,0.0,0.0,53,0.00,,,0.00,WUHU21623XXSP,2013-07-31 14:22:00,
2013-07-31 07:27:00,58.8,41.7,30.09,WSW,247,0.0,0.0,53,0.00,,,0.00,WUHU21623XXSP,2013-07-31 14:27:00,
2013-07-31 07:33:00,59.7,42.0,30.09,WSW,247,0.0,0.0,52,0.00,,,0.00,WUHU21623XXSP,2013-07-31 14:33:00,
2013-07-31 07:38:00,61.0,42.7,30.09,SSW,202,2.5,2.5,51,0.00,,,0.00,WUHU21623XXSP,2013-07-31 14:38:00,
2013-07-31 07:43:00,62.1,43.2,30.09,South,180,0.0,2.5,50,0.00,,,0.00,WUHU21623XXSP,2013-07-31 14:43:00,
2013-07-31 07:49:00,63.3,43.8,30.09,South,180,0.0,0.0,49,0.00,,,0.00,WUHU21623XXSP,2013-07-31 14:49:00,
2013-07-31 07:54:00,64.2,44.6,30.08,South,180,2.2,2.2,49,0.00,,,0.00,WUHU21623XXSP,2013-07-31 14:54:00,
2013-07-31 07:59:00,66.0,45.8,30.09,SE,135,0.0,2.2,48,0.00,,,0.00,WUHU21623XXSP,2013-07-31 14:59:00,
2013-07-31 08:05:00,67.1,46.1,30.09,NE,45,0.0,2.0,47,0.00,,,0.00,WUHU21623XXSP,2013-07-31 15:05:00,
2013-07-31 08:10:00,68.4,46.1,30.09,NNE,22,0.0,2.5,45,0.00,,,0.00,WUHU21623XXSP,2013-07-31 15:10:00,
2013-07-31 08:15:00,69.1,46.7,30.09,NE,45,2.9,3.8,45,0.00,,,0.00,WUHU21623XXSP,2013-07-31 15:15:00,
2013-07-31 08:20:00,69.6,47.2,30.09,North,0,5.8,5.8,45,0.00,,,0.00,WUHU21623XXSP,2013-07-31 15:20:00,
2013-07-31 08:26:00,70.3,47.3,30.08,ENE,67,0.0,6.9,44,0.00,,,0.00,WUHU21623XXSP,2013-07-31 15:26:00,
2013-07-31 08:31:00,70.9,47.8,30.08,ENE,67,4.0,4.0,44,0.00,,,0.00,WUHU21623XXSP,2013-07-31 15:31:00,
2013-07-31 08:36:00,71.8,48.0,30.09,NW,315,0.0,4.0,43,0.00,,,0.00,WUHU21623XXSP,2013-07-31 15:36:00,
2013-07-31 08:42:00,72.5,48.6,30.09,West,270,0.0,0.0,43,0.00,,,0.00,WUHU21623XXSP,2013-07-31 15:42:00,
2013-07-31 08:47:00,73.2,48.7,30.08,NE,45,0.0,0.0,42,0.00,,,0.00,WUHU21623XXSP,2013-07-31 15:47:00,
2013-07-31 08:53:00,73.6,48.4,30.08,NNE,22,5.4,5.4,41,0.00,,,0.00,WUHU21623XXSP,2013-07-31 15:53:00,
2013-07-31 08:58:00,73.6,49.0,30.08,NNE,22,2.2,5.4,42,0.00,,,0.00,WUHU21623XXSP,2013-07-31 15:58:00,
2013-07-31 09:03:00,73.9,49.3,30.08,NNW,337,4.9,4.9,42,0.00,,,0.00,WUHU21623XXSP,2013-07-31 16:03:00,
2013-07-31 09:08:00,75.0,49.7,30.08,NE,45,0.4,4.9,41,0.00,,,0.00,WUHU21623XXSP,2013-07-31 16:08:00,
2013-07-31 09:14:00,75.7,49.0,30.08,NE,45,0.9,4.3,39,0.00,,,0.00,WUHU21623XXSP,2013-07-31 16:14:00,
2013-07-31 09:19:00,75.9,49.9,30.08,NE,45,3.6,4.3,40,0.00,,,0.00,WUHU21623XXSP,2013-07-31 16:19:00,
2013-07-31 09:24:00,75.9,49.2,30.08,North,0,4.0,4.0,39,0.00,,,0.00,WUHU21623XXSP,2013-07-31 16:24:00,
2013-07-31 09:29:00,76.1,49.3,30.08,ENE,67,3.1,4.0,39,0.00,,,0.00,WUHU21623XXSP,2013-07-31 16:29:00,
2013-07-31 09:34:00,76.5,49.7,30.08,NNE,22,2.0,6.5,39,0.00,,,0.00,WUHU21623XXSP,2013-07-31 16:34:00,
2013-07-31 09:40:00,77.4,49.7,30.07,NE,45,3.1,6.5,38,0.00,,,0.00,WUHU21623XXSP,2013-07-31 16:40:00,
2013-07-31 09:46:00,77.9,49.4,30.07,ENE,67,0.0,4.5,37,0.00,,,0.00,WUHU21623XXSP,2013-07-31 16:46:00,
2013-07-31 09:51:00,78.6,50.0,30.07,ENE,67,0.0,5.6,37,0.00,,,0.00,WUHU21623XXSP,2013-07-31 16:51:00,
2013-07-31 09:56:00,78.6,49.3,30.07,NE,45,3.1,5.6,36,0.00,,,0.00,WUHU21623XXSP,2013-07-31 16:56:00,
2013-07-31 10:02:00,79.3,49.9,30.06,ENE,67,6.0,6.0,36,0.00,,,0.00,WUHU21623XXSP,2013-07-31 17:02:00,
2013-07-31 10:07:00,79.9,50.4,30.06,NNE,22,7.2,7.2,36,0.00,,,0.00,WUHU21623XXSP,2013-07-31 17:07:00,
2013-07-31 10:12:00,80.2,49.9,30.07,North,0,1.1,7.2,35,0.00,,,0.00,WUHU21623XXSP,2013-07-31 17:12:00,
2013-07-31 10:18:00,80.6,49.5,30.07,NE,45,0.9,3.8,34,0.00,,,0.00,WUHU21623XXSP,2013-07-31 17:18:00,
2013-07-31 10:23:00,81.1,48.4,30.06,NE,45,1.3,6.7,32,0.00,,,0.00,WUHU21623XXSP,2013-07-31 17:23:00,
2013-07-31 10:28:00,81.3,50.1,30.06,NE,45,0.9,8.1,34,0.00,,,0.00,WUHU21623XXSP,2013-07-31 17:28:00,
2013-07-31 10:33:00,81.5,49.5,30.06,NNE,22,3.4,8.1,33,0.00,,,0.00,WUHU21623XXSP,2013-07-31 17:33:00,
2013-07-31 10:38:00,81.5,48.7,30.06,ENE,67,0.9,3.4,32,0.00,,,0.00,WUHU21623XXSP,2013-07-31 17:38:00,
2013-07-31 10:44:00,81.5,47.1,30.06,North,0,2.2,4.7,30,0.00,,,0.00,WUHU21623XXSP,2013-07-31 17:44:00,
2013-07-31 10:49:00,81.5,48.7,30.06,NNE,22,0.0,4.7,32,0.00,,,0.00,WUHU21623XXSP,2013-07-31 17:49:00,
2013-07-31 10:55:00,81.3,48.5,30.06,NE,45,0.0,2.9,32,0.00,,,0.00,WUHU21623XXSP,2013-07-31 17:55:00,
2013-07-31 11:00:00,81.0,48.2,30.06,NE,45,0.0,6.5,32,0.00,,,0.00,WUHU21623XXSP,2013-07-31 18:00:00,
2013-07-31 11:05:00,80.8,49.6,30.06,WNW,292,0.0,6.5,34,0.00,,,0.00,WUHU21623XXSP,2013-07-31 18:05:00,
2013-07-31 11:10:00,80.8,49.6,30.06,ENE,67,0.0,4.0,34,0.00,,,0.00,WUHU21623XXSP,2013-07-31 18:10:00,
2013-07-31 11:16:00,80.8,48.9,30.06,NE,45,0.0,4.0,33,0.00,,,0.00,WUHU21623XXSP,2013-07-31 18:16:00,
2013-07-31 11:21:00,81.1,49.9,30.06,WSW,247,0.0,4.0,34,0.00,,,0.00,WUHU21623XXSP,2013-07-31 18:21:00,
2013-07-31 11:26:00,81.3,48.5,30.06,NNW,337,0.0,0.0,32,0.00,,,0.00,WUHU21623XXSP,2013-07-31 18:26:00,
2013-07-31 11:31:00,82.0,49.1,30.06,SW,225,5.6,5.6,32,0.00,,,0.00,WUHU21623XXSP,2013-07-31 18:31:00,
2013-07-31 11:37:00,82.6,50.4,30.06,SSW,202,1.3,5.6,33,0.00,,,0.00,WUHU21623XXSP,2013-07-31 18:37:00,
2013-07-31 11:43:00,83.5,51.2,30.06,ENE,67,1.6,2.0,33,0.00,,,0.00,WUHU21623XXSP,2013-07-31 18:43:00,
2013-07-31 11:48:00,83.7,49.8,30.05,North,0,3.6,3.6,31,0.00,,,0.00,WUHU21623XXSP,2013-07-31 18:48:00,
2013-07-31 11:53:00,83.5,49.6,30.05,NNW,337,4.9,5.1,31,0.00,,,0.00,WUHU21623XXSP,2013-07-31 18:53:00,
2013-07-31 11:58:00,83.5,49.6,30.05,NNE,22,0.0,5.1,31,0.00,,,0.00,WUHU21623XXSP,2013-07-31 18:58:00,
2013-07-31 12:03:00,83.8,49.9,30.05,WSW,247,0.0,4.3,31,0.00,,,0.00,WUHU21623XXSP,2013-07-31 19:03:00,
2013-07-31 12:09:00,84.2,49.5,30.04,WNW,292,0.0,0.9,30,0.00,,,0.00,WUHU21623XXSP,2013-07-31 19:09:00,
2013-07-31 12:14:00,84.2,49.5,30.04,NE,45,0.0,2.9,30,0.00,,,0.00,WUHU21623XXSP,2013-07-31 19:14:00,
2013-07-31 12:19:00,84.0,49.3,30.04,NNW,337,0.0,2.9,30,0.00,,,0.00,WUHU21623XXSP,2013-07-31 19:19:00,
2013-07-31 12:24:00,83.8,49.1,30.04,NNE,22,3.4,6.0,30,0.00,,,0.00,WUHU21623XXSP,2013-07-31 19:24:00,
2013-07-31 12:30:00,82.9,48.3,30.04,ENE,67,2.7,6.0,30,0.00,,,0.00,WUHU21623XXSP,2013-07-31 19:30:00,
2013-07-31 12:35:00,82.4,46.8,30.04,NNE,22,3.1,3.1,29,0.00,,,0.00,WUHU21623XXSP,2013-07-31 19:35:00,
2013-07-31 12:40:00,82.0,46.5,30.04,NE,45,0.0,3.1,29,0.00,,,0.00,WUHU21623XXSP,2013-07-31 19:40:00,
2013-07-31 12:45:00,81.7,47.3,30.04,NNE,22,3.6,3.6,30,0.00,,,0.00,WUHU21623XXSP,2013-07-31 19:45:00,
2013-07-31 12:51:00,81.5,47.9,30.04,NNW,337,0.0,3.6,31,0.00,,,0.00,WUHU21623XXSP,2013-07-31 19:51:00,
2013-07-31 12:57:00,81.7,48.0,30.03,SSW,202,0.0,0.0,31,0.00,,,0.00,WUHU21623XXSP,2013-07-31 19:57:00,
2013-07-31 13:02:00,81.7,47.3,30.03,NNE,22,1.3,3.1,30,0.00,,,0.00,WUHU21623XXSP,2013-07-31 20:02:00,
2013-07-31 13:07:00,81.9,47.4,30.03,NE,45,2.5,3.6,30,0.00,,,0.00,WUHU21623XXSP,2013-07-31 20:07:00,
2013-07-31 13:12:00,81.9,47.4,30.03,North,0,1.1,3.6,30,0.00,,,0.00,WUHU21623XXSP,2013-07-31 20:12:00,
2013-07-31 13:17:00,81.9,48.2,30.04,NE,45,4.9,4.9,31,0.00,,,0.00,WUHU21623XXSP,2013-07-31 20:17:00,
2013-07-31 13:23:00,82.0,48.3,30.03,NNE,22,1.3,4.9,31,0.00,,,0.00,WUHU21623XXSP,2013-07-31 20:23:00,
2013-07-31 13:28:00,82.0,48.3,30.03,NNW,337,6.5,6.5,31,0.00,,,0.00,WUHU21623XXSP,2013-07-31 20:28:00,
2013-07-31 13:33:00,82.2,47.7,30.02,NE,45,7.4,11.2,30,0.00,,,0.00,WUHU21623XXSP,2013-07-31 20:33:00,
2013-07-31 13:38:00,82.2,47.7,30.02,NNW,337,5.6,11.2,30,0.00,,,0.00,WUHU21623XXSP,2013-07-31 20:38:00,
2013-07-31 13:44:00,82.2,47.7,30.02,NNE,22,0.0,5.6,30,0.00,,,0.00,WUHU21623XXSP,2013-07-31 20:44:00,
2013-07-31 13:50:00,82.8,48.2,30.02,NNE,22,4.3,6.7,30,0.00,,,0.00,WUHU21623XXSP,2013-07-31 20:50:00,
2013-07-31 13:55:00,83.1,48.5,30.02,NE,45,0.0,4.3,30,0.00,,,0.00,WUHU21623XXSP,2013-07-31 20:55:00,
2013-07-31 14:00:00,83.5,47.8,30.02,ENE,67,0.0,2.7,29,0.00,,,0.00,WUHU21623XXSP,2013-07-31 21:00:00,
2013-07-31 14:05:00,83.7,47.9,30.02,NE,45,0.0,2.7,29,0.00,,,0.00,WUHU21623XXSP,2013-07-31 21:05:00,
2013-07-31 14:11:00,84.0,48.2,30.02,SSE,157,2.0,2.0,29,0.00,,,0.00,WUHU21623XXSP,2013-07-31 21:11:00,
2013-07-31 14:16:00,84.6,48.7,30.02,North,0,4.3,4.3,29,0.00,,,0.00,WUHU21623XXSP,2013-07-31 21:16:00,
2013-07-31 14:21:00,85.1,48.1,30.02,SE,135,4.5,6.5,28,0.00,,,0.00,WUHU21623XXSP,2013-07-31 21:21:00,
2013-07-31 14:26:00,85.3,48.3,30.02,NE,45,9.4,9.4,28,0.00,,,0.00,WUHU21623XXSP,2013-07-31 21:26:00,
2013-07-31 14:32:00,86.2,48.0,30.01,ENE,67,2.0,9.4,27,0.00,,,0.00,WUHU21623XXSP,2013-07-31 21:32:00,
2013-07-31 14:37:00,86.2,48.0,30.01,ESE,112,0.0,2.2,27,0.00,,,0.00,WUHU21623XXSP,2013-07-31 21:37:00,
2013-07-31 14:42:00,86.4,48.1,30.00,ENE,67,0.0,2.2,27,0.00,,,0.00,WUHU21623XXSP,2013-07-31 21:42:00,
2013-07-31 14:47:00,86.5,48.3,30.00,ENE,67,0.0,3.8,27,0.00,,,0.00,WUHU21623XXSP,2013-07-31 21:47:00,
2013-07-31 14:52:00,86.7,48.4,30.00,NE,45,6.7,6.7,27,0.00,,,0.00,WUHU21623XXSP,2013-07-31 21:52:00,
2013-07-31 14:58:00,86.7,48.4,30.00,North,0,4.5,6.7,27,0.00,,,0.00,WUHU21623XXSP,2013-07-31 21:58:00,
2013-07-31 15:03:00,86.5,47.2,30.00,NNW,337,5.4,5.4,26,0.00,,,0.00,WUHU21623XXSP,2013-07-31 22:03:00,
2013-07-31 15:08:00,85.8,47.7,30.00,NE,45,1.3,6.0,27,0.00,,,0.00,WUHU21623XXSP,2013-07-31 22:08:00,
2013-07-31 15:13:00,85.3,47.2,29.99,ENE,67,4.5,6.0,27,0.00,,,0.00,WUHU21623XXSP,2013-07-31 22:13:00,
2013-07-31 15:19:00,84.9,45.8,29.99,East,90,0.0,4.5,26,0.00,,,0.00,WUHU21623XXSP,2013-07-31 22:19:00,
2013-07-31 15:24:00,84.9,46.9,29.99,NE,45,7.2,7.2,27,0.00,,,0.00,WUHU21623XXSP,2013-07-31 22:24:00,
2013-07-31 15:29:00,84.6,45.5,29.99,ENE,67,0.0,7.2,26,0.00,,,0.00,WUHU21623XXSP,2013-07-31 22:29:00,
2013-07-31 15:34:00,84.2,45.2,29.98,NE,45,1.6,1.8,26,0.00,,,0.00,WUHU21623XXSP,2013-07-31 22:34:00,
2013-07-31 15:40:00,83.5,45.6,29.99,NE,45,1.6,2.0,27,0.00,,,0.00,WUHU21623XXSP,2013-07-31 22:40:00,
2013-07-31 15:45:00,83.1,45.3,29.98,NE,45,3.4,3.6,27,0.00,,,0.00,WUHU21623XXSP,2013-07-31 22:45:00,
2013-07-31 15:51:00,82.2,44.6,29.98,North,0,1.1,3.6,27,0.00,,,0.00,WUHU21623XXSP,2013-07-31 22:51:00,
2013-07-31 15:56:00,82.0,44.4,29.99,ENE,67,4.0,4.0,27,0.00,,,0.00,WUHU21623XXSP,2013-07-31 22:56:00,
2013-07-31 16:01:00,81.3,43.8,30.00,NE,45,0.0,4.0,27,0.00,,,0.00,WUHU21623XXSP,2013-07-31 23:01:00,
2013-07-31 16:07:00,81.1,43.7,30.01,North,0,1.1,1.1,27,0.00,,,0.00,WUHU21623XXSP,2013-07-31 23:07:00,
2013-07-31 16:12:00,81.0,43.6,30.02,NNW,337,1.6,6.5,27,0.00,,,0.00,WUHU21623XXSP,2013-07-31 23:12:00,
2013-07-31 16:17:00,80.8,44.5,30.03,NNW,337,0.0,1.6,28,0.00,,,0.00,WUHU21623XXSP,2013-07-31 23:17:00,
2013-07-31 16:22:00,80.2,45.0,30.05,SSE,157,8.7,8.7,29,0.00,,,0.00,WUHU21623XXSP,2013-07-31 23:22:00,
2013-07-31 16:28:00,78.6,44.6,30.06,West,270,6.5,8.7,30,0.00,,,0.00,WUHU21623XXSP,2013-07-31 23:28:00,
2013-07-31 16:33:00,76.3,47.2,30.08,West,270,2.5,7.6,36,0.00,,,0.00,WUHU21623XXSP,2013-07-31 23:33:00,
2013-07-31 16:38:00,74.7,48.0,30.08,WSW,247,0.0,4.0,39,0.00,,,0.00,WUHU21623XXSP,2013-07-31 23:38:00,
2013-07-31 16:43:00,72.7,48.8,30.08,NE,45,0.0,6.7,43,0.02,,,0.02,WUHU21623XXSP,2013-07-31 23:43:00,
2013-07-31 16:49:00,71.4,47.7,30.09,WSW,247,0.0,6.7,43,0.02,,,0.02,WUHU21623XXSP,2013-07-31 23:49:00,
2013-07-31 16:54:00,70.2,48.9,30.08,NNW,337,1.8,2.9,47,0.02,,,0.02,WUHU21623XXSP,2013-07-31 23:54:00,
2013-07-31 16:59:00,69.6,49.0,30.08,NNW,337,0.0,2.9,48,0.02,,,0.02,WUHU21623XXSP,2013-07-31 23:59:00,
2013-07-31 17:05:00,69.3,48.7,30.07,ENE,67,0.0,0.0,48,0.02,,,0.02,WUHU21623XXSP,2013-08-01 00:05:00,
2013-07-31 17:10:00,69.6,49.0,30.07,SSW,202,3.1,3.1,48,0.02,,,0.02,WUHU21623XXSP,2013-08-01 00:10:00,
2013-07-31 17:15:00,69.6,49.0,30.08,SW,225,0.0,3.1,48,0.02,,,0.02,WUHU21623XXSP,2013-08-01 00:15:00,
2013-07-31 17:20:00,70.0,49.3,30.07,SSW,202,5.1,5.1,48,0.02,,,0.02,WUHU21623XXSP,2013-08-01 00:20:00,
2013-07-31 17:26:00,70.0,49.3,30.07,SSW,202,0.0,5.1,48,0.02,,,0.02,WUHU21623XXSP,2013-08-01 00:26:00,
2013-07-31 17:31:00,69.8,49.8,30.07,SSW,202,0.0,1.6,49,0.02,,,0.02,WUHU21623XXSP,2013-08-01 00:31:00,
2013-07-31 17:36:00,69.6,49.6,30.06,SSW,202,0.0,0.0,49,0.02,,,0.02,WUHU21623XXSP,2013-08-01 00:36:00,
2013-07-31 17:41:00,69.4,49.4,30.06,NW,315,0.0,0.0,49,0.00,,,0.02,WUHU21623XXSP,2013-08-01 00:41:00,
2013-07-31 17:46:00,69.4,49.4,30.06,NW,315,0.0,0.0,49,0.00,,,0.02,WUHU21623XXSP,2013-08-01 00:46:00,
2013-07-31 17:52:00,69.4,50.5,30.05,NW,315,0.0,0.0,51,0.00,,,0.02,WUHU21623XXSP,2013-08-01 00:52:00,
2013-07-31 17:57:00,69.1,50.7,30.04,NNW,337,1.1,1.1,52,0.00,,,0.02,WUHU21623XXSP,2013-08-01 00:57:00,
2013-07-31 18:03:00,69.1,50.7,30.04,North,0,1.1,1.1,52,0.00,,,0.02,WUHU21623XXSP,2013-08-01 01:03:00,
2013-07-31 18:08:00,69.4,51.0,30.04,NNE,22,0.0,1.1,52,0.00,,,0.02,WUHU21623XXSP,2013-08-01 01:08:00,
2013-07-31 18:13:00,70.0,48.7,30.05,NNE,22,4.9,4.9,47,0.00,,,0.02,WUHU21623XXSP,2013-08-01 01:13:00,
2013-07-31 18:19:00,70.3,49.1,30.05,North,0,4.0,4.9,47,0.00,,,0.02,WUHU21623XXSP,2013-08-01 01:19:00,
2013-07-31 18:24:00,70.5,48.6,30.05,NNE,22,6.7,6.7,46,0.00,,,0.02,WUHU21623XXSP,2013-08-01 01:24:00,
2013-07-31 18:29:00,70.9,47.8,30.05,North,0,1.6,10.1,44,0.00,,,0.02,WUHU21623XXSP,2013-08-01 01:29:00,
2013-07-31 18:34:00,71.2,47.5,30.05,NNE,22,5.8,10.1,43,0.00,,,0.02,WUHU21623XXSP,2013-08-01 01:34:00,
2013-07-31 18:39:00,71.4,47.1,30.05,North,0,1.6,5.8,42,0.00,,,0.02,WUHU21623XXSP,2013-08-01 01:39:00,
2013-07-31 18:45:00,71.4,47.1,30.05,NE,45,0.0,5.6,42,0.00,,,0.02,WUHU21623XXSP,2013-08-01 01:45:00,
2013-07-31 18:50:00,71.8,46.8,30.06,NNE,22,0.0,5.6,41,0.00,,,0.02,WUHU21623XXSP,2013-08-01 01:50:00,
2013-07-31 18:55:00,71.8,46.8,30.06,NE,45,1.1,4.3,41,0.00,,,0.02,WUHU21623XXSP,2013-08-01 01:55:00,
2013-07-31 19:00:00,72.1,46.5,30.06,NE,45,2.0,2.0,40,0.00,,,0.02,WUHU21623XXSP,2013-08-01 02:00:00,
2013-07-31 19:06:00,72.1,46.5,30.06,ENE,67,0.0,2.0,40,0.00,,,0.02,WUHU21623XXSP,2013-08-01 02:06:00,
2013-07-31 19:12:00,72.5,46.9,30.06,NE,45,1.3,2.0,40,0.00,,,0.02,WUHU21623XXSP,2013-08-01 02:12:00,
2013-07-31 19:17:00,72.5,46.1,30.05,NW,315,5.1,5.1,39,0.00,,,0.02,WUHU21623XXSP,2013-08-01 02:17:00,
2013-07-31 19:22:00,72.9,46.4,30.05,North,0,2.9,5.1,39,0.00,,,0.02,WUHU21623XXSP,2013-08-01 02:22:00,
2013-07-31 19:27:00,73.0,46.6,30.05,NE,45,0.0,4.7,39,0.00,,,0.02,WUHU21623XXSP,2013-08-01 02:27:00,
2013-07-31 19:33:00,72.9,45.7,30.05,NE,45,0.0,2.2,38,0.00,,,0.02,WUHU21623XXSP,2013-08-01 02:33:00,
2013-07-31 19:38:00,73.0,45.8,30.04,NE,45,0.0,2.2,38,0.00,,,0.02,WUHU21623XXSP,2013-08-01 02:38:00,
2013-07-31 19:43:00,72.9,45.7,30.05,NE,45,0.0,0.0,38,0.00,,,0.02,WUHU21623XXSP,2013-08-01 02:43:00,
2013-07-31 19:48:00,73.0,46.6,30.05,NE,45,0.0,0.0,39,0.00,,,0.02,WUHU21623XXSP,2013-08-01 02:48:00,
2013-07-31 19:53:00,73.0,45.8,30.05,NE,45,0.0,0.0,38,0.00,,,0.02,WUHU21623XXSP,2013-08-01 02:53:00,
2013-07-31 19:59:00,73.0,46.6,30.04,NE,45,0.0,0.0,39,0.00,,,0.02,WUHU21623XXSP,2013-08-01 02:59:00,
2013-07-31 20:04:00,73.0,46.6,30.05,NE,45,0.0,0.0,39,0.00,,,0.02,WUHU21623XXSP,2013-08-01 03:04:00,
2013-07-31 20:09:00,72.9,46.4,30.05,NE,45,0.0,0.0,39,0.00,,,0.02,WUHU21623XXSP,2013-08-01 03:09:00,
2013-07-31 20:14:00,72.7,46.3,30.04,NE,45,0.0,0.0,39,0.00,,,0.02,WUHU21623XXSP,2013-08-01 03:14:00,
2013-07-31 20:20:00,72.5,46.1,30.03,NE,45,0.0,0.0,39,0.00,,,0.02,WUHU21623XXSP,2013-08-01 03:20:00,
2013-07-31 20:26:00,72.3,45.9,30.03,NE,45,0.0,0.0,39,0.00,,,0.02,WUHU21623XXSP,2013-08-01 03:26:00,
2013-07-31 20:31:00,71.8,45.4,30.03,North,0,0.0,0.0,39,0.00,,,0.02,WUHU21623XXSP,2013-08-01 03:31:00,
2013-07-31 20:36:00,71.8,46.2,30.03,North,0,0.0,0.0,40,0.00,,,0.02,WUHU21623XXSP,2013-08-01 03:36:00,
2013-07-31 20:41:00,71.2,45.7,30.03,North,0,0.0,0.0,40,0.00,,,0.02,WUHU21623XXSP,2013-08-01 03:41:00,
2013-07-31 20:47:00,71.2,45.7,30.04,North,0,0.0,0.0,40,0.00,,,0.02,WUHU21623XXSP,2013-08-01 03:47:00,
2013-07-31 20:52:00,70.9,45.4,30.05,North,0,0.0,0.0,40,0.00,,,0.02,WUHU21623XXSP,2013-08-01 03:52:00,
2013-07-31 20:57:00,70.5,45.7,30.05,North,0,0.0,0.0,41,0.00,,,0.02,WUHU21623XXSP,2013-08-01 03:57:00,
2013-07-31 21:02:00,70.3,45.5,30.06,South,180,2.9,2.9,41,0.00,,,0.02,WUHU21623XXSP,2013-08-01 04:02:00,
2013-07-31 21:08:00,70.0,45.8,30.05,South,180,0.0,2.9,42,0.00,,,0.02,WUHU21623XXSP,2013-08-01 04:08:00,
2013-07-31 21:13:00,69.6,47.2,30.05,SSW,202,0.0,0.0,45,0.00,,,0.02,WUHU21623XXSP,2013-08-01 04:13:00,
2013-07-31 21:18:00,68.7,48.2,30.05,SSW,202,0.0,0.0,48,0.00,,,0.02,WUHU21623XXSP,2013-08-01 04:18:00,
2013-07-31 21:23:00,68.2,48.9,30.05,WNW,292,0.0,0.0,50,0.00,,,0.02,WUHU21623XXSP,2013-08-01 04:23:00,
2013-07-31 21:29:00,67.1,48.9,30.04,NNE,22,0.0,0.0,52,0.00,,,0.02,WUHU21623XXSP,2013-08-01 04:29:00,
2013-07-31 21:34:00,66.4,49.2,30.01,NNE,22,0.0,0.0,54,0.00,,,0.02,WUHU21623XXSP,2013-08-01 04:34:00,
2013-07-31 21:40:00,65.7,49.0,30.01,NNE,22,0.0,1.3,55,0.00,,,0.02,WUHU21623XXSP,2013-08-01 04:40:00,
2013-07-31 21:45:00,65.1,48.0,30.01,ENE,67,0.0,0.0,54,0.00,,,0.02,WUHU21623XXSP,2013-08-01 04:45:00,
2013-07-31 21:50:00,64.9,48.3,30.02,East,90,0.0,0.0,55,0.00,,,0.02,WUHU21623XXSP,2013-08-01 04:50:00,
2013-07-31 21:55:00,64.6,47.9,30.02,SSE,157,0.0,0.0,55,0.00,,,0.02,WUHU21623XXSP,2013-08-01 04:55:00,
2013-07-31 22:00:00,64.2,47.6,30.03,South,180,0.0,2.7,55,0.00,,,0.02,WUHU21623XXSP,2013-08-01 05:00:00,
2013-07-31 22:06:00,64.0,47.9,30.03,SW,225,0.0,2.7,56,0.00,,,0.02,WUHU21623XXSP,2013-08-01 05:06:00,
2013-07-31 22:11:00,63.7,47.1,30.03,SW,225,0.0,0.0,55,0.00,,,0.02,WUHU21623XXSP,2013-08-01 05:11:00,
2013-07-31 22:16:00,63.7,47.1,30.03,SW,225,0.0,0.0,55,0.00,,,0.02,WUHU21623XXSP,2013-08-01 05:16:00,
2013-07-31 22:22:00,63.5,47.4,30.03,SW,225,0.0,0.0,56,0.00,,,0.02,WUHU21623XXSP,2013-08-01 05:22:00,
2013-07-31 22:27:00,63.3,47.3,30.03,SSE,157,0.0,0.0,56,0.00,,,0.02,WUHU21623XXSP,2013-08-01 05:27:00,
2013-07-31 22:32:00,63.3,47.3,30.03,SSE,157,0.0,0.0,56,0.00,,,0.02,WUHU21623XXSP,2013-08-01 05:32:00,
2013-07-31 22:37:00,63.1,47.6,30.01,SSE,157,0.0,0.0,57,0.00,,,0.02,WUHU21623XXSP,2013-08-01 05:37:00,
2013-07-31 22:42:00,63.1,47.6,30.02,SSE,157,0.0,0.0,57,0.00,,,0.02,WUHU21623XXSP,2013-08-01 05:42:00,
2013-07-31 22:48:00,62.8,47.8,30.02,SSE,157,0.0,0.0,58,0.00,,,0.02,WUHU21623XXSP,2013-08-01 05:48:00,
2013-07-31 22:53:00,62.4,47.4,30.02,SSE,157,0.0,0.0,58,0.00,,,0.02,WUHU21623XXSP,2013-08-01 05:53:00,
2013-07-31 22:58:00,62.2,47.8,30.02,SSE,157,0.0,0.0,59,0.00,,,0.02,WUHU21623XXSP,2013-08-01 05:58:00,
2013-07-31 23:03:00,62.1,47.6,30.02,SW,225,0.0,0.0,59,0.00,,,0.02,WUHU21623XXSP,2013-08-01 06:03:00,
2013-07-31 23:09:00,61.9,46.9,30.02,SSW,202,0.0,1.6,58,0.00,,,0.00,WUHU21623XXSP,2013-08-01 06:09:00,
2013-07-31 23:14:00,61.7,46.8,30.02,SSW,202,0.0,1.6,58,0.00,,,0.00,WUHU21623XXSP,2013-08-01 06:14:00,
2013-07-31 23:19:00,61.7,46.8,30.01,WSW,247,0.0,0.0,58,0.00,,,0.00,WUHU21623XXSP,2013-08-01 06:19:00,
2013-07-31 23:24:00,61.5,46.6,30.01,WSW,247,0.0,0.0,58,0.00,,,0.00,WUHU21623XXSP,2013-08-01 06:24:00,
2013-07-31 23:30:00,61.5,46.6,30.00,WSW,247,0.0,0.0,58,0.00,,,0.00,WUHU21623XXSP,2013-08-01 06:30:00,
2013-07-31 23:36:00,61.5,47.1,30.01,SSE,157,3.1,3.1,59,0.00,,,0.00,WUHU21623XXSP,2013-08-01 06:36:00,
2013-07-31 23:42:00,61.3,46.9,30.02,South,180,0.7,5.4,59,0.00,,,0.00,WUHU21623XXSP,2013-08-01 06:42:00,
2013-07-31 23:47:00,61.2,46.8,30.02,South,180,2.5,5.4,59,0.00,,,0.00,WUHU21623XXSP,2013-08-01 06:47:00,
2013-07-31 23:52:00,61.0,46.6,30.02,South,180,1.6,3.8,59,0.00,,,0.00,WUHU21623XXSP,2013-08-01 06:52:00,
2013-07-31 23:57:00,60.8,46.5,30.03,SSW,202,1.1,1.6,59,0.00,,,0.00,WUHU21623XXSP,2013-08-01 06:57:00,